Newton, KS

11:20 PM CDT on March 28, 2017 (GMT -0500)
Newton City County

Weather History for KEWK - November, 2013

Change the Weather History Date:

Tuesday, November 26, 2013

  Actual Average Record
Temperature  
Mean Temperature 27 °F -  
Max Temperature 37 °F 47 °F 69 °F (2005)
Min Temperature 17 °F 31 °F 14 °F (1996)
Degree Days  
Heating Degree Days 38    
Moisture  
Dew Point 15 °F    
Average Humidity 60    
Maximum Humidity 80    
Minimum Humidity 33    
Precipitation  
Precipitation 0.00 in - - ()
Sea Level Pressure  
Sea Level Pressure 30.32 in    
Wind  
Wind Speed 11 mph (North)    
Max Wind Speed 29 mph    
Max Gust Speed 36 mph    
Visibility 10 miles    
Events      
Averages and records for this station are not official NWS values.
T = Trace of Precipitation, MM = Missing Value Source: NWS Daily Summary

Daily Weather History Graph

Daily Weather History Graph

Search for Another Location

Airport or City:

Trip Planner

Search our weather history database for the weather conditions in past years. The results will help you decide how hot, cold, wet, or windy it might be!

Date:

Astronomy

Nov. 26, 2013 Rise Set
Actual Time 7:21 AM CST 5:11 PM CST
Civil Twilight 6:53 AM CST 5:39 PM CST
Nautical Twilight 6:20 AM CST 6:12 PM CST
Astronomical Twilight 5:48 AM CST 6:43 PM CST
Moon 12:32 AM CST (11/26) 1:12 PM CST (11/26)
Length of Visible Light 10h 46m
Length of Day
9h 49m
Last Quarter, 41% of the Moon is Illuminated
Nov 26
Last Quarter
Dec 2
New
Dec 9
First Quarter
Dec 17
Full
Dec 25
Last Quarter

Hourly Weather History & Observations

Time (CST) Temp. Windchill Dew Point Humidity Pressure Visibility Wind Dir Wind Speed Gust Speed Precip Events Conditions
12:15 AM 26.6 °F 19.1 °F 19.4 °F 74% 30.22 in 10.0 mi NNW 6.9 mph - N/A   Clear
12:35 AM 26.6 °F 18.2 °F 21.2 °F 80% 30.22 in 10.0 mi NNW 8.1 mph - N/A   Clear
12:55 AM 26.6 °F 19.1 °F 19.4 °F 74% 30.21 in 10.0 mi NNW 6.9 mph - N/A   Clear
1:15 AM 26.6 °F 20.0 °F 19.4 °F 74% 30.21 in 10.0 mi NNW 5.8 mph - N/A   Clear
1:35 AM 26.6 °F 18.2 °F 19.4 °F 74% 30.21 in 10.0 mi NNW 8.1 mph - N/A   Clear
1:55 AM 24.8 °F 16.9 °F 19.4 °F 80% 30.22 in 10.0 mi North 6.9 mph - N/A   Clear
2:15 AM 24.8 °F 16.9 °F 19.4 °F 80% 30.22 in 10.0 mi NNW 6.9 mph - N/A   Clear
2:35 AM 24.8 °F 16.9 °F 19.4 °F 80% 30.22 in 10.0 mi NNW 6.9 mph - N/A   Clear
2:55 AM 24.8 °F 16.9 °F 19.4 °F 80% 30.22 in 10.0 mi NNW 6.9 mph - N/A   Clear
3:15 AM 24.8 °F 16.1 °F 17.6 °F 74% 30.23 in 10.0 mi NNW 8.1 mph - N/A   Clear
3:35 AM 24.8 °F 16.9 °F 17.6 °F 74% 30.23 in 10.0 mi North 6.9 mph - N/A   Clear
3:55 AM 24.8 °F 16.9 °F 17.6 °F 74% 30.23 in 10.0 mi NNW 6.9 mph - N/A   Clear
4:15 AM 24.8 °F 16.9 °F 19.4 °F 80% 30.23 in 10.0 mi NNW 6.9 mph - N/A   Clear
4:35 AM 24.8 °F 16.9 °F 19.4 °F 80% 30.23 in 10.0 mi NNW 6.9 mph - N/A   Clear
4:55 AM 24.8 °F 16.9 °F 19.4 °F 80% 30.24 in 10.0 mi NNW 6.9 mph - N/A   Clear
5:15 AM 24.8 °F 16.1 °F 17.6 °F 74% 30.24 in 10.0 mi NNW 8.1 mph - N/A   Clear
5:35 AM 24.8 °F 15.3 °F 17.6 °F 74% 30.25 in 10.0 mi NNW 9.2 mph - N/A   Clear
5:55 AM 24.8 °F 15.3 °F 17.6 °F 74% 30.25 in 10.0 mi NW 9.2 mph - N/A   Clear
6:15 AM 24.8 °F 15.3 °F 17.6 °F 74% 30.25 in 10.0 mi NNW 9.2 mph - N/A   Clear
6:35 AM 24.8 °F 15.3 °F 17.6 °F 74% 30.26 in 10.0 mi NNW 9.2 mph - N/A   Clear
6:55 AM 24.8 °F 14.6 °F 17.6 °F 74% 30.27 in 10.0 mi NNW 10.4 mph - N/A   Clear
7:15 AM 24.8 °F 13.4 °F 19.4 °F 80% 30.27 in 10.0 mi NNW 12.7 mph - N/A   Clear
7:35 AM 24.8 °F 14.6 °F 17.6 °F 74% 30.28 in 10.0 mi NNW 10.4 mph - N/A   Clear
7:55 AM 24.8 °F 14.6 °F 17.6 °F 74% 30.28 in 10.0 mi NNW 10.4 mph - N/A   Clear
8:15 AM 26.6 °F 14.7 °F 19.4 °F 74% 30.29 in 10.0 mi NNW 15.0 mph - N/A   Clear
8:35 AM 28.4 °F 16.6 °F 19.4 °F 69% 30.29 in 10.0 mi NNW 16.1 mph - N/A   Clear
8:55 AM 28.4 °F 16.6 °F 21.2 °F 74% 30.30 in 10.0 mi North 16.1 mph - N/A   Clear
9:15 AM 30.2 °F 19.3 °F 21.2 °F 69% 30.31 in 10.0 mi North 15.0 mph 21.9 mph N/A   Clear
9:35 AM 32.0 °F 20.5 °F 23.0 °F 69% 30.31 in 10.0 mi North 18.4 mph 26.5 mph N/A   Clear
9:55 AM 33.8 °F 22.5 °F 23.0 °F 65% 30.31 in 10.0 mi North 19.6 mph 27.6 mph N/A   Clear
10:15 AM 35.6 °F 24.2 °F 24.8 °F 65% 30.31 in 10.0 mi North 21.9 mph 29.9 mph N/A   Clear
10:35 AM 35.6 °F 24.5 °F 21.2 °F 56% 30.32 in 10.0 mi North 20.7 mph 28.8 mph N/A   Clear
10:55 AM 35.6 °F 24.2 °F 23.0 °F 60% 30.32 in 10.0 mi North 21.9 mph 28.8 mph N/A   Clear
11:15 AM 35.6 °F 23.7 °F 21.2 °F 56% 30.33 in 10.0 mi North 24.2 mph 29.9 mph N/A   Scattered Clouds
11:35 AM 35.6 °F 24.0 °F 21.2 °F 56% 30.32 in 10.0 mi North 23.0 mph 33.4 mph N/A   Overcast
11:55 AM 35.6 °F 24.5 °F 21.2 °F 56% 30.32 in 10.0 mi North 20.7 mph 32.2 mph N/A   Overcast
12:15 PM 35.6 °F 22.7 °F 19.4 °F 52% 30.31 in 10.0 mi North 28.8 mph 33.4 mph N/A   Overcast
12:35 PM 37.4 °F 25.9 °F 21.2 °F 52% 30.31 in 10.0 mi North 25.3 mph 31.1 mph N/A   Mostly Cloudy
12:55 PM 37.4 °F 25.9 °F 19.4 °F 48% 30.31 in 10.0 mi North 25.3 mph 35.7 mph N/A   Partly Cloudy
1:15 PM 37.4 °F 25.6 °F 19.4 °F 48% 30.32 in 10.0 mi North 26.5 mph 34.5 mph N/A   Partly Cloudy
1:35 PM 37.4 °F 26.4 °F 19.4 °F 48% 30.32 in 10.0 mi North 23.0 mph 31.1 mph N/A   Partly Cloudy
1:55 PM 37.4 °F 26.9 °F 19.4 °F 48% 30.32 in 10.0 mi North 20.7 mph 27.6 mph N/A   Clear
2:15 PM 37.4 °F 26.6 °F 17.6 °F 45% 30.32 in 10.0 mi North 21.9 mph 32.2 mph N/A   Clear
2:35 PM 37.4 °F 26.1 °F 17.6 °F 45% 30.32 in 10.0 mi North 24.2 mph 32.2 mph N/A   Clear
2:55 PM 37.4 °F 26.6 °F 15.8 °F 41% 30.32 in 10.0 mi North 21.9 mph 29.9 mph N/A   Clear
3:15 PM 37.4 °F 27.5 °F 15.8 °F 41% 30.33 in 10.0 mi North 18.4 mph 26.5 mph N/A   Clear
3:35 PM 35.6 °F 24.5 °F 14.0 °F 41% 30.33 in 10.0 mi North 20.7 mph 27.6 mph N/A   Clear
3:55 PM 35.6 °F 24.8 °F 12.2 °F 38% 30.34 in 10.0 mi North 19.6 mph 24.2 mph N/A   Clear
4:15 PM 35.6 °F 25.2 °F 12.2 °F 38% 30.35 in 10.0 mi North 18.4 mph 25.3 mph N/A   Clear
4:35 PM 35.6 °F 25.9 °F 8.6 °F 33% 30.36 in 10.0 mi North 16.1 mph 21.9 mph N/A   Clear
4:55 PM 33.8 °F 23.9 °F 8.6 °F 35% 30.36 in 10.0 mi North 15.0 mph 20.7 mph N/A   Clear
5:15 PM 32.0 °F 23.0 °F 6.8 °F 35% 30.37 in 10.0 mi North 11.5 mph - N/A   Clear
5:35 PM 30.2 °F 21.9 °F 6.8 °F 37% 30.37 in 10.0 mi North 9.2 mph - N/A   Clear
5:55 PM 28.4 °F 19.1 °F 6.8 °F 40% 30.37 in 10.0 mi North 10.4 mph - N/A   Clear
6:15 PM 28.4 °F 20.4 °F 6.8 °F 40% 30.38 in 10.0 mi North 8.1 mph - N/A   Clear
6:35 PM 24.8 °F 16.1 °F 6.8 °F 46% 30.38 in 10.0 mi North 8.1 mph - N/A   Clear
6:55 PM 24.8 °F 16.1 °F 6.8 °F 46% 30.39 in 10.0 mi North 8.1 mph - N/A   Clear
7:15 PM 23.0 °F 14.7 °F 6.8 °F 50% 30.39 in 10.0 mi North 6.9 mph - N/A   Clear
7:35 PM 23.0 °F 13.9 °F 6.8 °F 50% 30.39 in 10.0 mi North 8.1 mph - N/A   Clear
7:55 PM 21.2 °F 11.7 °F 6.8 °F 54% 30.40 in 10.0 mi North 8.1 mph - N/A   Clear
8:15 PM 21.2 °F 10.1 °F 6.8 °F 54% 30.40 in 10.0 mi North 10.4 mph - N/A   Clear
8:35 PM 21.2 °F 10.9 °F 6.8 °F 54% 30.41 in 10.0 mi North 9.2 mph - N/A   Clear
8:55 PM 19.4 °F 9.5 °F 6.8 °F 58% 30.41 in 10.0 mi North 8.1 mph - N/A   Clear
9:15 PM 19.4 °F 9.5 °F 6.8 °F 58% 30.42 in 10.0 mi North 8.1 mph - N/A   Clear
9:35 PM 19.4 °F 9.5 °F 6.8 °F 58% 30.42 in 10.0 mi North 8.1 mph - N/A   Clear
9:55 PM 19.4 °F 9.5 °F 6.8 °F 58% 30.43 in 10.0 mi North 8.1 mph - N/A   Clear
10:15 PM 19.4 °F 9.5 °F 6.8 °F 58% 30.43 in 10.0 mi North 8.1 mph - N/A   Clear
10:35 PM 19.4 °F 9.5 °F 6.8 °F 58% 30.44 in 10.0 mi North 8.1 mph - N/A   Clear
10:55 PM 17.6 °F 8.2 °F 6.8 °F 63% 30.44 in 10.0 mi North 6.9 mph - N/A   Clear
11:15 PM 17.6 °F 9.3 °F 5.0 °F 58% 30.44 in 10.0 mi North 5.8 mph - N/A   Clear
11:35 PM 17.6 °F 8.2 °F 6.8 °F 63% 30.44 in 10.0 mi North 6.9 mph - N/A   Clear
11:55 PM 17.6 °F 9.3 °F 5.0 °F 58% 30.44 in 10.0 mi NNW 5.8 mph - N/A   Clear